TimeCST,TemperatureF,Dew PointF,Humidity,Sea Level PressureIn,VisibilityMPH,Wind Direction,Wind SpeedMPH,Gust SpeedMPH,PrecipitationIn,Events,Conditions,WindDirDegrees,DateUTC
12:15 AM,22.1,19.4,89,30.40,10.0,SSE,4.6,-,N/A,,Clear,150,2012-11-16 06:15:00
12:35 AM,23.4,21.0,91,30.40,10.0,South,8.1,-,N/A,,Clear,170,2012-11-16 06:35:00
12:55 AM,25.2,22.5,89,30.39,10.0,SSE,5.8,-,N/A,,Clear,150,2012-11-16 06:55:00
1:15 AM,23.5,20.7,89,30.38,10.0,SE,5.8,-,N/A,,Clear,130,2012-11-16 07:15:00
1:35 AM,22.1,19.8,91,30.38,10.0,SSE,9.2,-,N/A,,Clear,160,2012-11-16 07:35:00
1:55 AM,26.2,23.9,91,30.37,10.0,SSE,8.1,-,N/A,,Clear,150,2012-11-16 07:55:00
2:15 AM,26.8,23.9,89,30.36,10.0,SSE,9.2,-,N/A,,Clear,150,2012-11-16 08:15:00
2:35 AM,26.4,23.9,90,30.36,10.0,SSE,9.2,-,N/A,,Clear,160,2012-11-16 08:35:00
2:55 AM,27.1,24.6,90,30.36,10.0,SSE,8.1,-,N/A,,Clear,160,2012-11-16 08:55:00
3:15 AM,27.5,24.4,88,30.35,10.0,SSE,8.1,-,N/A,,Clear,150,2012-11-16 09:15:00
3:35 AM,27.3,24.6,90,30.34,10.0,SSE,9.2,-,N/A,,Clear,160,2012-11-16 09:35:00
3:55 AM,27.1,24.1,88,30.33,10.0,South,9.2,-,N/A,,Clear,170,2012-11-16 09:55:00
4:15 AM,27.9,25.2,90,30.33,10.0,South,11.5,-,N/A,,Clear,170,2012-11-16 10:15:00
4:35 AM,29.1,25.5,86,30.31,10.0,South,10.4,-,N/A,,Clear,170,2012-11-16 10:35:00
4:55 AM,28.9,25.2,86,30.31,10.0,South,10.4,-,N/A,,Clear,170,2012-11-16 10:55:00
5:15 AM,29.5,25.5,85,30.31,10.0,South,12.7,-,N/A,,Clear,180,2012-11-16 11:15:00
5:35 AM,29.7,25.7,85,30.31,10.0,South,10.4,-,N/A,,Clear,170,2012-11-16 11:35:00
5:55 AM,29.7,25.7,85,30.31,10.0,South,12.7,-,N/A,,Clear,180,2012-11-16 11:55:00
6:15 AM,28.4,25.3,88,30.30,10.0,South,12.7,-,N/A,,Clear,170,2012-11-16 12:15:00
6:35 AM,28.9,25.5,87,30.30,10.0,South,12.7,-,N/A,,Clear,170,2012-11-16 12:35:00
6:55 AM,29.3,25.7,86,30.30,10.0,South,13.8,-,N/A,,Clear,180,2012-11-16 12:55:00
7:15 AM,27.9,24.8,88,30.30,10.0,South,10.4,-,N/A,,Clear,180,2012-11-16 13:15:00
7:35 AM,29.3,26.2,88,30.30,10.0,South,12.7,-,N/A,,Clear,190,2012-11-16 13:35:00
7:55 AM,29.1,25.7,87,30.29,10.0,South,11.5,-,N/A,,Clear,180,2012-11-16 13:55:00
8:15 AM,30.2,26.4,86,30.29,10.0,South,16.1,19.6,N/A,,Clear,190,2012-11-16 14:15:00
8:35 AM,31.8,27.5,84,30.29,10.0,South,15.0,-,N/A,,Clear,190,2012-11-16 14:35:00
8:55 AM,32.7,28.2,83,30.29,10.0,South,16.1,-,N/A,,Clear,190,2012-11-16 14:55:00
9:15 AM,33.4,28.2,81,30.29,10.0,South,17.3,21.9,N/A,,Clear,190,2012-11-16 15:15:00
9:35 AM,35.6,29.1,77,30.28,10.0,South,17.3,23.0,N/A,,Clear,190,2012-11-16 15:35:00
9:55 AM,38.1,29.3,71,30.27,10.0,South,19.6,23.0,N/A,,Clear,190,2012-11-16 15:55:00
10:15 AM,40.5,29.3,64,30.27,10.0,SSW,19.6,25.3,N/A,,Clear,200,2012-11-16 16:15:00
10:35 AM,42.6,29.5,60,30.25,10.0,South,20.7,27.6,N/A,,Clear,190,2012-11-16 16:35:00
10:55 AM,45.1,29.8,55,30.25,10.0,South,24.2,28.8,N/A,,Clear,190,2012-11-16 16:55:00
11:15 AM,46.9,29.5,51,30.25,10.0,South,25.3,-,N/A,,Clear,190,2012-11-16 17:15:00
11:35 AM,48.7,29.3,47,30.24,10.0,South,21.9,27.6,N/A,,Clear,180,2012-11-16 17:35:00
11:55 AM,50.4,28.6,43,30.22,10.0,South,24.2,28.8,N/A,,Clear,190,2012-11-16 17:55:00
12:15 PM,52.3,28.4,40,30.21,10.0,South,24.2,28.8,N/A,,Clear,190,2012-11-16 18:15:00
12:35 PM,54.0,27.7,36,30.19,10.0,South,26.5,-,N/A,,Clear,190,2012-11-16 18:35:00
12:55 PM,54.9,26.6,34,30.17,10.0,South,28.8,32.2,N/A,,Clear,190,2012-11-16 18:55:00
1:15 PM,55.4,26.4,33,30.16,10.0,South,28.8,33.4,N/A,,Clear,180,2012-11-16 19:15:00
1:35 PM,56.1,26.1,31,30.15,10.0,South,27.6,35.7,N/A,,Clear,190,2012-11-16 19:35:00
1:55 PM,56.5,25.9,31,30.14,10.0,South,29.9,34.5,N/A,,Clear,180,2012-11-16 19:55:00
2:15 PM,56.8,25.9,30,30.13,10.0,South,26.5,29.9,N/A,,Clear,180,2012-11-16 20:15:00
2:35 PM,56.7,26.1,31,30.12,10.0,South,25.3,34.5,N/A,,Clear,180,2012-11-16 20:35:00
2:55 PM,57.4,25.2,29,30.12,10.0,South,27.6,34.5,N/A,,Clear,190,2012-11-16 20:55:00
3:15 PM,57.4,25.2,29,30.11,10.0,South,25.3,28.8,N/A,,Clear,180,2012-11-16 21:15:00
3:35 PM,57.2,24.4,28,30.10,10.0,South,24.2,28.8,N/A,,Clear,180,2012-11-16 21:35:00
3:55 PM,56.8,23.7,28,30.10,10.0,South,23.0,28.8,N/A,,Clear,190,2012-11-16 21:55:00
4:15 PM,56.3,23.0,28,30.10,10.0,South,23.0,29.9,N/A,,Clear,190,2012-11-16 22:15:00
4:35 PM,55.2,23.0,29,30.10,10.0,South,19.6,25.3,N/A,,Clear,180,2012-11-16 22:35:00
4:55 PM,53.6,22.5,30,30.10,10.0,South,18.4,24.2,N/A,,Clear,180,2012-11-16 22:55:00
5:15 PM,51.8,22.6,32,30.10,10.0,South,16.1,-,N/A,,Clear,180,2012-11-16 23:15:00
5:35 PM,50.0,23.7,36,30.10,10.0,South,16.1,-,N/A,,Clear,180,2012-11-16 23:35:00
5:55 PM,48.6,24.8,39,30.10,10.0,South,13.8,-,N/A,,Clear,180,2012-11-16 23:55:00
6:15 PM,46.4,25.3,44,30.11,10.0,South,11.5,-,N/A,,Clear,170,2012-11-17 00:15:00
6:35 PM,44.6,25.9,48,30.10,10.0,South,12.7,-,N/A,,Clear,170,2012-11-17 00:35:00
6:55 PM,45.5,26.8,48,30.10,10.0,South,15.0,-,N/A,,Clear,170,2012-11-17 00:55:00
7:15 PM,45.5,27.3,49,30.09,10.0,South,15.0,-,N/A,,Clear,170,2012-11-17 01:15:00
7:55 PM,44.8,28.4,53,30.09,10.0,South,18.4,23.0,N/A,,Clear,170,2012-11-17 01:55:00
8:15 PM,44.6,28.9,54,30.09,10.0,South,18.4,-,N/A,,Clear,180,2012-11-17 02:15:00
8:35 PM,44.1,29.3,56,30.09,10.0,South,18.4,-,N/A,,Clear,180,2012-11-17 02:35:00
8:55 PM,43.9,29.8,58,30.09,10.0,South,18.4,-,N/A,,Clear,170,2012-11-17 02:55:00
9:15 PM,43.5,30.2,59,30.08,10.0,South,18.4,-,N/A,,Clear,170,2012-11-17 03:15:00
9:35 PM,43.3,30.2,60,30.09,10.0,South,17.3,-,N/A,,Clear,180,2012-11-17 03:35:00
9:55 PM,43.0,30.6,62,30.09,10.0,South,17.3,-,N/A,,Clear,180,2012-11-17 03:55:00
10:15 PM,43.2,30.7,62,30.09,10.0,South,17.3,-,N/A,,Clear,180,2012-11-17 04:15:00
10:35 PM,42.8,30.6,62,30.08,10.0,South,18.4,25.3,N/A,,Clear,180,2012-11-17 04:35:00
10:55 PM,41.9,30.6,64,30.08,10.0,South,18.4,23.0,N/A,,Clear,180,2012-11-17 04:55:00
11:15 PM,41.9,31.1,66,30.08,10.0,South,18.4,-,N/A,,Clear,180,2012-11-17 05:15:00
11:35 PM,41.4,31.3,67,30.08,10.0,South,16.1,-,N/A,,Clear,180,2012-11-17 05:35:00
11:55 PM,41.5,31.8,68,30.08,10.0,South,15.0,21.9,N/A,,Clear,180,2012-11-17 05:55:00